This demonstration page uses our WeatherBlox Daily Observations layout. Learn more.

Left ArrowRight Arrow

Hourly Observations for January 12, 2022

Temp ( °F °C ) Dew Point ( °F °C ) Humidity (%) Winds ( mph kmh ) Pressure ( in mb ) Visibility ( mi km ) Precip ( " mm )
12:53 am 00:53 Mostly Cloudy 43 6.1 30 -1.1 60 60 SW 7 11 30.38 1029 10 16 0.00 0.00
1:53 am 01:53 Mostly Cloudy 42 5.6 30 -1.1 62 62 SSW 5 7 30.37 1028 10 16 0.00 0.00
2:53 am 02:53 Mostly Cloudy 42 5.6 31 -0.6 65 65 SW 5 7 30.35 1028 10 16 0.00 0.00
3:53 am 03:53 Mostly Cloudy 40 4.4 31 -0.6 70 70 Calm 30.34 1027 10 16 0.00 0.00
4:53 am 04:53 Mostly Cloudy 39 3.9 31 -0.6 73 73 Calm 30.33 1027 10 16 0.00 0.00
5:53 am 05:53 Mostly Cloudy 41 5 33 0.6 73 73 Calm 30.32 1027 10 16 0.00 0.00
6:53 am 06:53 Mostly Cloudy 41 5 33 0.6 73 73 Calm 30.34 1028 10 16 0.00 0.00
7:53 am 07:53 Sunny 41 5 34 1.1 76 76 S 6 9 30.33 1027 10 16 0.00 0.00
8:53 am 08:53 Mostly Sunny 43 6.1 34 1.1 71 71 SSW 8 13 30.33 1027 10 16 0.00 0.00
9:53 am 09:53 Mostly Sunny 47 8.3 32 0 56 56 SSW 8 13 30.32 1027 10 16 0.00 0.00
10:53 am 10:53 Mostly Sunny 51 10.6 30 -1.1 44 44 SW 13 20 30.30 1026 10 16 0.00 0.00
11:53 am 11:53 Mostly Sunny 54 12.2 31 -0.6 42 42 SSW 12 19 30.27 1025 10 16 0.00 0.00
12:53 pm 12:53 Sunny 57 13.9 28 -2.2 33 33 S 7 11 30.24 1024 10 16 0.00 0.00
1:53 pm 13:53 Mostly Sunny 60 15.6 26 -3.3 27 27 SW 6 9 30.22 1023 10 16 0.00 0.00
2:53 pm 14:53 Mostly Sunny 61 16.1 26 -3.3 26 26 WSW 6 9 30.20 1023 10 16 0.00 0.00
3:53 pm 15:53 Mostly Sunny 62 16.7 22 -5.6 21 21 SSW 8 13 30.19 1022 10 16 0.00 0.00
4:53 pm 16:53 Mostly Sunny 61 16.1 23 -5 23 23 SW 3 6 30.19 1022 10 16 0.00 0.00
5:53 pm 17:53 Mostly Cloudy 60 15.6 27 -2.8 28 28 SSW 5 7 30.18 1022 10 16 0.00 0.00
6:53 pm 18:53 Mostly Clear 58 14.4 28 -2.2 32 32 S 6 9 30.18 1022 10 16 0.00 0.00
7:53 pm 19:53 Clear 57 13.9 31 -0.6 37 37 S 3 6 30.19 1022 10 16 0.00 0.00
8:53 pm 20:53 Mostly Clear 52 11.1 31 -0.6 45 45 Calm 30.21 1023 10 16 0.00 0.00
9:53 pm 21:53 Mostly Cloudy 52 11.1 32 0 47 47 SSW 6 9 30.20 1023 10 16 0.00 0.00
10:53 pm 22:53 Partly Cloudy 51 10.6 34 1.1 52 52 SW 5 7 30.20 1023 10 16 0.00 0.00
11:53 pm 23:53 Mostly Clear 49 9.4 35 1.7 59 59 SW 6 9 30.19 1023 10 16 0.00 0.00

Powered by AerisWeather